Location: Possagno
(45.8500°N, 11.8667°E)
Time: 20:42:03
(UTC+00:00)

Resurs 1-4 Rocket - Pass Details

Date: 02 October 2020
Orbit: 800 x 813 km, 98.6° (Epoch: 27 October)

Event Time Altitude Azimuth Distance (km) Brightness Sun altitude
Rises 00:09:59 0° 21° (NNE) 3,332 6.1 -45.3°
Reaches altitude 10° 00:12:30 10° 30° (NNE) 2,398 5.1 -45.1°
Enters shadow 00:12:53 12° 32° (NNE) 2,266 5.0 -45.1°
